Regional Weather Roundup
Issued by NWS Sioux Falls, SD

Home | Current Version | Previous Version | Graphics & Text | Print | Product List | Glossary Off
Versions: 1 2 3 4 5 6 7 8 9 10 11 12 13 14 15 16 17 18 19 20 21 22 23 24 25 26 27 28 29 30 31 32 33 34 35 36 37 38 39 40 41 42 43 44 45 46 47 48 49 50

000
ASUS43 KFSD 030202
RWRFSD

WEATHER ROUNDUP FOR SE SOUTH DAKOTA/SW MINNESOTA/NW IOWA
NATIONAL WEATHER SERVICE SIOUX FALLS SD
900 PM CDT SUN AUG 02 2015

NOTE: "FAIR" INDICATES FEW OR NO CLOUDS BELOW 12,000 FEET WITH NO
SIGNIFICANT WEATHER AND OR OBSTRUCTIONS TO VISIBILITY.


SDZ038>040-050-052>070-030300-
SOUTHEAST SOUTH DAKOTA

CITY           SKY/WX    TMP DP  RH WIND       PRES   REMARKS
BROOKINGS      CLEAR     68  57  68 NW5       29.91R
CHAMBERLAIN    CLEAR     76  60  59 E5        29.92R
HURON          CLEAR     73  60  63 NE5       29.89R
MADISON        FAIR      68  63  83 N6        29.91R
MITCHELL       CLEAR     71  62  73 NE5       29.90R
SIOUX FALLS    CLEAR     71  61  70 N8        29.88R
WINNER         FAIR      77  59  53 E7        29.93R
YANKTON        CLEAR     75  64  69 N7        29.86R
$$

MNZ071-072-080-081-089-090-097-098-030300-
SOUTHWEST MINNESOTA

CITY           SKY/WX    TMP DP  RH WIND       PRES   REMARKS
FAIRMONT       CLEAR     72  55  56 NW10      29.84R
JACKSON        CLEAR     70  59  68 NW8       29.87R
LUVERNE        CLEAR     73  61  64 N3        29.89R
MARSHALL       CLEAR     70  55  60 NW6       29.88R
MONTEVIDEO     CLEAR     70  55  60 N8        29.87R
PIPESTONE      CLEAR     72  61  68 CALM      29.90R
REDWOOD FALLS  CLEAR     71  58  63 NW7       29.84R
TRACY          CLEAR     70  59  68 CALM      29.87S
WINDOM         CLEAR     66  57  72 NW9       29.86S
WORTHINGTON    CLEAR     68  57  68 N7        29.88R
$$

IAZ001>003-012>014-020>022-031-032-NEZ013-014-SDZ071-030300-
NORTHWEST IOWA

CITY           SKY/WX    TMP DP  RH WIND       PRES   REMARKS
DENISON        CLEAR     77  72  83 N6        29.82R
ESTHERVILLE    CLEAR     69  60  73 NW8       29.85R
LE MARS        CLEAR     75  68  78 NW8       29.86R
SIOUX CITY     NOT AVBL
SPENCER        CLEAR     73  58  59 N9        29.86R
$$

ABBREVIATIONS USED IN REMARKS
   TC - TEMPERATURE IN CELSIUS
  WCI - WIND CHILL INDEX
   HX - HEAT INDEX
  VSB - VISIBILITY




USA.gov is the U.S. government's official web portal to all federal, state and local government web resources and services.